Theta_e
310 310 310 311 311 311 312 312 312 312 313 313 313 313 313 314 314 314 314 313 312 312 314 315 314 315 315 316 317 317 321 320 319 319 318 317 318 315 316 316 315 316 318 318 317
310 311 311 311 312 312 312 312 312 313 313 313 313 313 314 314 314 314 314 313 312 311 314 314 314 314 317 317 317 319 320 319 318 318 317 317 316 317 316 317 317 316 316 317 317
311 312 312 312 312 312 312 312 312 313 313 313 313 313 313 313 314 313 313 313 313 313 313 314 314 314 316 317 318 318 319 318 316 315 314 315 315 315 316 317 317 317 316 316 316
312 312 312 312 312 311 311 311 311 311 311 311 311 310 310 310 315 312 314 313 313 313 313 313 314 316 317 318 317 318 317 317 317 315 315 316 316 316 315 316 316 316 315 315 315
312 312 311 310 310 310 310 311 311 312 313 314 314 314 312 309 311 313 314 314 314 313 313 313 314 315 317 316 315 317 317 316 316 315 315 315 316 316 316 315 315 315 314 314 314
308 308 308 309 310 311 312 314 315 316 317 317 316 315 314 311 312 311 312 314 313 313 313 313 314 313 314 314 315 314 314 314 314 314 314 314 315 313 315 314 314 313 313 313 313
310 310 311 312 313 314 315 315 316 316 316 316 316 316 312 315 316 313 312 312 313 313 313 313 313 313 313 314 313 313 314 315 314 313 314 312 314 314 314 314 313 313 313 313 313
313 313 313 314 315 316 317 318 319 319 320 320 319 315 312 313 313 315 313 311 311 313 313 313 313 312 313 312 313 313 313 315 315 311 312 313 315 316 314 311 313 313 314 314 313
314 314 315 317 318 319 320 321 321 321 321 320 317 313 312 313 312 313 312 310 310 311 312 312 311 312 311 313 314 313 315 315 314 312 312 314 315 315 313 312 313 313 313 313 313
317 318 319 320 321 322 322 322 322 320 319 316 313 311 312 312 312 313 312 311 311 311 310 311 311 313 311 313 317 319 316 314 313 314 312 312 313 313 312 312 312 313 313 313 312
321 321 322 322 322 322 323 323 320 319 316 316 314 313 314 313 313 313 312 310 311 310 313 310 313 314 315 314 315 313 313 314 314 314 313 313 313 313 312 312 312 313 313 313 313
321 321 321 322 323 323 323 322 320 316 315 320 320 319 317 315 314 312 311 311 311 314 310 311 313 314 312 310 311 312 313 314 315 313 310 313 313 313 314 313 313 312 313 313 313
321 321 322 322 322 323 323 321 317 316 313 316 316 315 315 315 314 314 311 311 312 311 312 315 316 311 310 312 311 312 312 314 314 312 312 312 317 315 315 312 312 311 311 312 313
321 321 322 322 322 322 320 320 319 316 320 319 311 309 309 309 308 308 310 311 310 313 312 312 311 310 310 311 312 313 313 311 311 312 316 311 317 317 316 315 314 313 312 312 312
323 323 323 323 323 322 321 322 321 314 328 312 308 310 310 308 308 308 308 309 311 310 310 314 310 309 311 312 310 313 309 310 310 312 311 314 313 318 314 316 314 313 312 312 312
321 322 323 323 323 320 320 319 320 319 327 317 308 310 310 309 308 308 308 308 308 310 309 310 306 309 311 308 309 308 310 310 309 311 315 317 315 317 315 314 313 314 313 313 309
320 321 319 319 319 316 318 318 322 326 318 315 310 309 309 310 310 309 310 310 313 315 316 312 310 309 307 310 308 309 312 317 320 320 320 314 314 315 316 315 312 312 310 307 305
321 320 319 317 317 316 318 317 320 319 319 317 314 310 315 313 314 310 310 313 310 310 314 317 319 311 309 312 315 312 314 319 323 321 320 316 315 315 314 312 310 307 305 304 304
318 318 319 319 319 319 318 320 320 318 319 319 317 318 318 313 313 311 312 314 312 309 315 317 317 308 306 308 311 311 313 312 314 316 318 314 314 315 315 310 307 307 307 305 303
312 312 313 313 315 317 316 318 317 315 314 315 317 317 318 317 315 312 315 311 311 308 307 312 315 313 309 306 307 310 310 314 312 315 317 314 314 315 315 313 308 306 304 302 300
307 307 308 311 312 313 316 314 314 314 316 317 317 318 316 316 315 316 317 314 311 309 307 311 314 315 313 314 314 312 310 309 310 313 316 317 316 313 312 309 306 303 301 299 298
304 306 305 309 311 311 311 311 310 311 311 313 313 314 315 314 314 314 314 313 312 308 313 312 314 315 314 312 311 311 313 314 317 317 314 314 314 312 311 306 300 300 299 296 294
303 304 305 311 311 310 308 308 308 309 308 309 311 311 310 311 311 311 311 309 308 311 312 312 313 315 315 313 309 311 311 311 312 312 314 315 314 310 307 304 299 298 296 295 294
300 303 305 307 308 308 308 308 308 308 309 309 309 309 309 309 309 309 309 309 306 305 304 306 308 313 314 312 310 310 312 309 307 308 309 309 308 306 304 300 297 295 294 293 293
298 299 301 306 306 307 305 305 306 306 305 304 305 306 306 307 307 308 305 303 302 299 300 303 307 306 306 303 302 303 303 302 302 303 303 303 302 302 298 295 294 293 291 290 292
297 298 298 299 300 302 304 304 304 304 303 303 303 301 301 304 304 304 300 300 302 298 299 298 301 299 299 300 300 300 299 299 299 299 299 299 299 294 294 293 292 292 290 290 291
294 294 295 295 297 299 300 301 300 300 296 298 297 298 298 298 298 297 296 296 297 297 297 297 298 299 299 298 295 296 297 297 297 297 296 295 296 292 291 290 290 290 290 290 291
Wind_Speed
3 4 4 4 4 5 6 6 7 7 7 7 8 9 9 11 12 14 16 13 8 11 10 9 8 7 5 4 4 4 4 5 4 5 2 4 4 4 6 10 9 10 15 16 20
6 6 6 6 7 7 8 8 9 9 10 10 10 11 12 13 17 19 10 6 5 6 10 10 10 8 3 3 3 5 4 5 4 5 5 4 6 9 7 15 18 19 22 23 22
8 8 9 9 10 10 10 11 11 12 12 12 12 14 14 14 18 2 5 4 3 4 9 11 9 8 5 4 7 5 6 6 7 13 9 8 9 7 12 13 17 18 17 15 21
11 11 11 11 12 12 12 13 13 14 14 14 14 14 15 12 6 2 6 6 6 7 12 12 10 6 6 7 7 6 15 12 6 6 6 8 7 11 17 31 29 25 26 21 25
13 13 13 13 13 13 13 14 14 14 14 14 14 15 14 8 15 19 17 15 13 11 14 14 11 7 7 5 5 9 11 10 13 13 17 16 22 18 25 31 30 26 25 25 23
14 14 14 13 13 13 13 14 14 14 14 15 14 15 14 11 11 10 10 10 10 12 14 15 7 11 4 5 8 3 9 14 13 17 17 11 26 3 17 16 20 20 24 22 20
13 13 12 12 12 12 13 13 13 14 14 14 14 15 17 21 16 13 15 13 13 13 15 16 15 8 3 4 5 6 12 16 15 10 9 6 11 14 25 15 22 23 18 21 31
13 12 12 12 11 11 11 12 13 13 13 13 12 12 11 15 15 15 16 18 13 13 14 13 14 11 5 2 4 6 4 9 2 7 2 6 17 17 15 8 17 25 33 34 32
11 10 10 10 11 10 11 12 13 14 14 13 10 8 8 11 9 9 12 13 12 13 11 9 10 5 2 5 7 5 11 12 10 8 3 9 13 11 15 23 37 35 34 32 31
9 9 9 10 10 11 11 12 14 14 11 7 9 4 12 7 5 5 5 8 7 11 8 6 3 5 3 7 11 14 11 10 10 9 8 12 22 21 34 23 37 37 35 25 25
10 9 9 10 10 12 12 11 6 5 6 7 5 9 13 14 15 11 7 11 10 8 7 3 7 11 17 17 15 10 14 19 19 19 20 19 18 18 31 29 33 35 28 19 17
12 11 10 11 12 12 12 7 6 6 10 18 25 30 30 19 9 8 9 9 7 7 7 4 11 16 5 5 10 14 16 19 16 10 4 18 23 23 21 27 30 23 20 14 13
14 14 13 13 15 14 10 6 5 8 6 10 13 10 6 12 10 12 13 7 6 8 12 18 10 3 9 13 13 11 13 17 19 13 14 14 15 4 6 9 16 11 11 11 10
17 16 15 14 13 6 2 2 6 9 5 3 2 0 2 3 1 4 13 7 3 8 7 10 5 7 4 9 11 15 11 14 12 6 9 9 13 7 11 13 11 3 3 5 9
19 21 18 17 7 5 3 4 7 5 6 3 2 2 3 2 3 3 5 5 4 4 4 3 3 3 6 7 10 4 2 1 2 8 9 5 7 4 5 11 6 3 8 10 15
16 21 21 18 17 6 1 7 6 1 7 1 2 2 3 2 2 3 2 2 2 5 5 11 1 4 4 2 5 2 2 2 1 4 7 5 7 5 4 2 2 12 18 23 24
9 6 2 5 6 11 10 5 2 5 3 1 1 2 1 4 5 7 5 5 4 7 9 3 6 3 5 5 3 4 4 5 6 5 10 4 10 7 10 12 8 16 25 28 26
11 11 12 15 19 21 8 3 4 2 3 2 1 2 4 2 5 3 3 6 8 4 4 8 12 9 8 8 6 8 8 7 6 12 20 12 17 7 3 8 16 21 20 20 23
12 11 14 16 12 14 9 4 5 7 7 4 2 12 16 3 3 4 7 10 5 12 7 5 12 1 5 2 5 5 6 5 8 14 12 17 29 21 18 8 14 17 21 21 20
10 8 11 8 9 9 3 7 5 4 6 1 10 6 13 7 7 3 4 2 2 5 1 2 11 10 3 2 3 5 3 9 6 9 19 20 22 16 15 8 7 10 12 13 17
10 4 6 14 13 7 5 7 7 8 9 7 12 13 17 13 8 5 7 7 4 4 6 5 6 14 5 9 17 9 8 7 7 8 12 17 17 15 5 8 6 8 8 10 13
9 2 9 17 7 4 7 4 1 6 4 4 4 8 14 12 12 12 17 14 3 1 11 11 9 16 28 24 14 16 21 20 9 10 12 15 21 21 7 7 10 6 5 6 9
10 8 13 21 6 6 3 3 7 6 7 4 6 4 2 5 7 12 12 3 6 2 4 4 3 9 9 9 0 6 10 15 18 7 21 19 13 6 14 18 15 10 4 5 9
8 4 4 16 9 5 8 9 8 5 8 8 5 8 8 11 9 8 8 1 4 4 6 6 3 7 12 13 16 9 6 5 5 4 9 13 20 20 17 18 17 10 10 11 9
6 3 4 5 8 12 9 3 4 4 0 3 2 5 2 3 3 6 2 3 3 5 3 1 10 12 14 11 8 9 10 15 15 16 9 18 22 24 13 7 13 20 17 17 14
6 4 4 3 2 7 9 7 14 14 3 4 8 4 1 6 6 10 2 3 7 2 2 1 3 4 7 11 14 19 20 23 24 25 26 26 26 5 5 9 13 17 21 26 21
7 7 4 4 6 7 5 4 5 8 2 1 4 3 3 4 4 4 7 9 10 7 7 6 5 6 12 16 14 13 17 18 20 24 15 14 7 2 3 9 17 19 20 23 21
Wind_Direction
305 314 320 322 323 324 324 325 324 323 323 323 323 321 321 318 312 303 292 276 252 227 218 210 207 203 198 196 182 162 229 244 242 195 223 191 244 215 255 264 247 228 244 264 281
293 298 302 303 304 305 307 308 307 307 307 309 310 311 313 316 313 303 278 245 221 219 219 217 208 199 190 182 193 215 237 254 231 219 255 257 239 280 267 262 261 265 261 272 274
288 292 295 297 298 300 301 301 301 302 302 303 304 304 307 317 319 268 158 139 151 207 212 212 211 197 208 192 200 193 241 245 237 247 259 274 262 252 265 276 268 271 290 276 278
285 287 288 292 297 299 300 301 303 303 303 302 302 300 302 306 294 219 221 252 277 250 219 207 199 187 216 214 203 235 244 241 265 241 248 258 274 261 247 263 278 283 282 274 272
280 284 285 288 288 292 296 298 301 301 301 301 301 297 299 276 257 273 266 266 269 244 222 215 199 200 226 217 204 239 263 258 256 262 265 274 263 265 268 269 282 280 284 288 277
269 273 278 282 286 291 295 297 300 300 298 296 294 290 284 257 273 268 266 259 244 230 221 217 228 231 265 235 222 328 280 278 277 265 257 253 271 253 271 283 285 284 287 288 293
268 268 271 274 280 287 294 298 299 299 298 293 288 280 273 267 270 260 266 257 244 233 225 228 230 209 200 252 271 299 297 292 261 261 233 228 266 231 269 283 286 287 283 292 293
270 271 272 276 283 289 296 300 303 303 301 296 290 278 260 272 268 264 260 257 241 229 227 229 228 229 230 273 281 275 264 284 308 173 210 197 273 288 301 291 289 287 288 290 287
267 272 274 280 286 291 298 301 303 302 300 294 282 249 261 266 277 265 254 245 235 220 219 216 195 202 201 238 270 229 273 254 297 215 144 212 285 273 294 298 289 286 284 284 292
261 266 275 285 294 300 307 308 306 295 280 275 256 246 243 263 268 264 258 213 189 187 162 173 164 205 194 205 254 282 266 256 266 293 252 267 272 282 284 278 277 282 282 293 292
255 261 270 282 293 306 313 324 313 304 255 238 234 248 265 262 267 265 228 178 158 165 189 161 209 212 232 227 258 284 272 281 279 283 291 287 285 280 280 276 266 274 284 295 295
255 262 269 280 293 304 316 314 298 285 295 268 262 256 253 253 265 250 186 180 185 208 140 170 233 232 292 274 246 258 270 274 282 291 291 295 296 282 266 264 264 276 286 291 317
261 267 273 287 297 303 303 296 311 327 258 273 259 262 254 251 239 244 196 197 206 191 204 239 259 240 214 243 250 246 261 280 284 314 281 308 287 274 257 250 272 262 269 290 340
260 266 276 283 296 291 272 316 328 334 271 243 216 333 182 176 179 213 206 215 188 254 219 253 277 231 211 246 237 271 264 258 277 299 298 16 297 301 269 284 270 17 332 297 4
263 265 266 266 238 222 307 314 325 309 274 70 129 151 152 153 131 59 177 194 226 179 210 245 168 171 210 234 182 256 46 222 228 275 304 262 265 356 169 266 309 53 20 356 329
264 266 256 249 222 157 60 349 319 185 235 109 129 175 155 138 97 113 141 159 167 210 220 256 145 216 237 163 189 123 293 292 232 257 257 300 238 19 16 134 107 358 349 350 25
259 269 292 319 155 321 304 321 210 236 338 80 169 198 194 173 182 177 167 185 232 283 271 190 211 222 187 241 161 171 273 295 270 243 269 344 285 250 299 291 335 347 10 31 30
202 212 224 252 266 280 207 146 205 312 296 223 267 197 274 232 246 177 189 246 219 204 265 272 273 193 166 216 260 206 235 239 267 274 288 282 265 270 88 341 34 52 60 40 32
204 195 206 208 230 197 178 216 218 189 186 230 249 270 274 261 259 226 235 265 217 193 219 255 250 205 232 213 206 149 210 257 272 274 281 272 270 272 238 73 58 41 23 19 18
252 250 247 212 203 195 170 227 237 215 144 109 252 249 267 264 277 268 253 103 204 208 294 289 284 223 181 162 218 244 331 248 226 255 252 263 267 260 286 343 63 33 26 12 4
236 238 219 198 184 187 233 252 273 252 219 220 240 256 273 275 246 204 230 264 269 223 210 291 252 265 265 245 261 250 250 238 267 248 251 255 260 271 3 70 19 25 23 11 14
205 201 192 177 182 209 235 218 271 252 249 259 284 261 256 267 263 260 267 260 3 177 280 258 275 274 271 272 266 263 259 256 249 240 227 249 258 283 312 73 66 21 20 19 22
180 180 179 180 203 202 215 246 224 196 215 201 232 227 215 260 255 242 250 106 36 21 324 36 233 264 269 239 71 241 252 263 267 290 254 260 257 290 322 333 23 21 48 349 343
165 161 171 202 222 205 222 245 235 211 218 219 247 239 250 254 245 264 258 76 8 37 346 11 229 272 275 290 314 272 230 253 268 265 295 272 283 288 297 327 336 3 344 331 328
169 195 169 187 221 221 218 195 184 194 318 75 213 139 126 269 286 248 295 351 78 9 72 3 266 278 278 301 298 282 286 280 270 265 259 283 285 285 329 329 327 323 327 332 324
164 150 171 159 155 196 213 242 243 239 238 229 254 310 187 244 250 287 277 218 274 73 105 60 278 327 286 281 275 289 280 271 269 267 264 261 269 59 331 310 310 316 325 326 321
181 159 153 144 171 181 207 210 180 149 62 181 135 134 208 237 205 216 243 251 257 254 263 268 262 269 270 290 310 280 260 272 276 274 293 273 293 128 332 328 321 311 303 306 297